User: anonymous   Login
Location: Newark
(45.8667°N, 9.7333°E)
Time: 20:38:34
(UTC+00:00)
Language:

NOAA 18 - Orbit

View from above orbital plane
View from above orbital plane
View from above satellite
View from above satellite

Ground track
Ground track

The orbit data is extracted from the following two-line orbital elements,

1 28654U 05018A   20052.56783181 +.00000073 +00000-0 +64047-4 0  9992
2 28654 099.0614 107.8154 0014149 196.6992 163.3715 14.12490036760417
Epoch (UTC): 21 February 2020 13:37:40
Eccentricity: 0.0014149
inclination: 99.0614°
perigee height: 840 km
apogee height: 861 km
right ascension of ascending node: 107.8154°
argument of perigee: 196.6992°
revolutions per day: 14.12490036
mean anomaly at epoch: 163.3715°
orbit number at epoch: 76041

The dashed part of the orbit path shows where the satellite is in the earth's shadow,  

DLR